This is the latest recevied weather packets stored in our database for station/object WO5CID. If no packets are shown the sender has not sent any weather packets the latest 10 day(s).
| Time | Temp. | Humidity | Pressure | Rain* | Wind** | Luminosity | Snow |
|---|---|---|---|---|---|---|---|
| 1778158617 | 25° C | 72% | 1015.2 hPa | 0 mm | - | 339 W/m² | - |
| 1778158314 | 25° C | 74% | 1015.3 hPa | 0 mm | - | 326 W/m² | - |
| 1778158010 | 23.89° C | 78% | 1015.2 hPa | 0 mm | - | 305 W/m² | - |
| 1778157708 | 23.89° C | 78% | 1015.2 hPa | 0 mm | - | 285 W/m² | - |
| 1778157406 | 23.33° C | 81% | 1015.1 hPa | 0 mm | - | 250 W/m² | - |
| 1778157103 | 22.78° C | 84% | 1015 hPa | 0 mm | - | 188 W/m² | - |
| 1778156798 | 22.22° C | 87% | 1015 hPa | 0 mm | - | 126 W/m² | - |
| 1778156494 | 21.67° C | 87% | 1015.1 hPa | 0 mm | - | 84 W/m² | - |
| 1778156190 | 21.67° C | 89% | 1015 hPa | 0 mm | - | 86 W/m² | - |
| 1778155886 | 21.11° C | 90% | 1015 hPa | 0 mm | - | 67 W/m² | - |
| 1778155583 | 21.11° C | 92% | 1015 hPa | 0 mm | - | 71 W/m² | - |
| 1778155279 | 20.56° C | 93% | 1015.2 hPa | 0 mm | - | 69 W/m² | - |
| 1778154976 | 20.56° C | 94% | 1015.1 hPa | 0 mm | - | 69 W/m² | - |
| 1778154671 | 20° C | 95% | 1015 hPa | 0 mm | - | 67 W/m² | - |
| 1778154368 | 20° C | 95% | 1015.2 hPa | 0 mm | - | 64 W/m² | - |
| 1778154065 | 20° C | 96% | 1014.9 hPa | 0 mm | - | 52 W/m² | - |
| 1778153762 | 20° C | 96% | 1015.1 hPa | 0 mm | - | 38 W/m² | - |
| 1778153459 | 20° C | 96% | 1015 hPa | 0 mm | - | 28 W/m² | - |
| 1778153157 | 20° C | 97% | 1015 hPa | 0 mm | - | 29 W/m² | - |
| 1778152853 | 19.44° C | 97% | 1014.9 hPa | 0 mm | - | 31 W/m² | - |
| 1778152550 | 19.44° C | 97% | 1014.7 hPa | 0 mm | - | 32 W/m² | - |
| 1778152247 | 19.44° C | 97% | 1014.7 hPa | 0 mm | - | 33 W/m² | - |
| 1778151943 | 19.44° C | 97% | 1014.9 hPa | 0 mm | - | 32 W/m² | - |
| 1778151640 | 18.89° C | 97% | 1014.8 hPa | 0 mm | - | 22 W/m² | - |
| 1778151337 | 18.89° C | 97% | 1014.7 hPa | 0 mm | - | 11 W/m² | - |
* Rain latest hour (hover to see other rain measurements)
** Current wind speed in m/s (hover to see current wind gust speed)